AFL2933 UIII-ULLI

Flight info

Callsign AFL2933
Flight time 6h 25m
Altitude 34000
Route N0460F340 BD R497 LONKA R497 UTIMA R497 KUMOD N869 LITUN B228 HMN L870 UNISO L870 PITIN L870 ADLIN T242 AMDEN P979 BEPOL
Aircraft B738/M-VGDW/C

Departure

Time 2026-04-30 06:23
Airport Irkutsk International Airport (UIII)

Arrival

Time 2026-04-30 12:49
Airport Pulkovo Airport (ULLI)
Time Latitude Longitude Altitude Speed Heading
2026-04-30 06:08 52.27230 104.35690 1628 ft 0 kts 85°
2026-04-30 06:15 52.27231 104.35717 1628 ft 7 kts 90°
2026-04-30 06:16 52.27211 104.35784 1631 ft 7 kts 137°
2026-04-30 06:16 52.27179 104.35838 1630 ft 7 kts 111°
2026-04-30 06:16 52.27178 104.35953 1628 ft 11 kts 87°
2026-04-30 06:16 52.27182 104.36076 1628 ft 11 kts 88°
2026-04-30 06:17 52.27185 104.36198 1628 ft 11 kts 87°
2026-04-30 06:17 52.27175 104.36313 1628 ft 10 kts 113°
2026-04-30 06:17 52.27149 104.36427 1628 ft 14 kts 109°
2026-04-30 06:17 52.27109 104.36604 1631 ft 17 kts 112°
2026-04-30 06:18 52.27068 104.36781 1630 ft 16 kts 110°
2026-04-30 06:18 52.27030 104.36951 1631 ft 16 kts 110°
2026-04-30 06:18 52.26993 104.37114 1628 ft 15 kts 110°
2026-04-30 06:18 52.27000 104.37275 1630 ft 14 kts 95°
2026-04-30 06:19 52.26950 104.37474 1629 ft 26 kts 113°
2026-04-30 06:19 52.26860 104.37815 1634 ft 39 kts 113°
2026-04-30 06:19 52.26782 104.38111 1638 ft 42 kts 114°
2026-04-30 06:19 52.26671 104.38524 1644 ft 37 kts 113°
2026-04-30 06:20 52.26575 104.38885 1649 ft 33 kts 113°
2026-04-30 06:20 52.26491 104.39204 1653 ft 29 kts 113°
2026-04-30 06:20 52.26410 104.39505 1657 ft 28 kts 113°
2026-04-30 06:20 52.26336 104.39786 1672 ft 26 kts 113°
2026-04-30 06:21 52.26265 104.40051 1664 ft 25 kts 113°
2026-04-30 06:21 52.26199 104.40300 1673 ft 23 kts 113°
2026-04-30 06:21 52.26136 104.40536 1671 ft 22 kts 113°
2026-04-30 06:21 52.26075 104.40766 1680 ft 22 kts 113°
2026-04-30 06:22 52.26016 104.40990 1680 ft 21 kts 113°
2026-04-30 06:22 52.26033 104.41189 1679 ft 18 kts 32°
2026-04-30 06:22 52.26147 104.41268 1679 ft 18 kts 24°
2026-04-30 06:22 52.26249 104.41211 1681 ft 25 kts 293°
2026-04-30 06:23 52.26385 104.40700 1675 ft 81 kts 293°
2026-04-30 06:23 52.26696 104.39537 1653 ft 140 kts 294°
2026-04-30 06:23 52.27158 104.37858 1776 ft 176 kts 295°
2026-04-30 06:23 52.27639 104.35966 2414 ft 178 kts 294°
2026-04-30 06:24 52.27926 104.34052 3218 ft 186 kts 267°
2026-04-30 06:24 52.27335 104.31999 3432 ft 213 kts 237°
2026-04-30 06:24 52.26704 104.29783 3387 ft 229 kts 274°
2026-04-30 06:24 52.27503 104.27277 2714 ft 266 kts 305°
2026-04-30 06:25 52.28375 104.24884 4408 ft 226 kts 297°
2026-04-30 06:25 52.28423 104.24727 4520 ft 224 kts 297°
2026-04-30 06:26 52.27230 104.35690 4520 ft 0 kts 85°
2026-04-30 06:37 52.27231 104.35716 1628 ft 8 kts 90°
2026-04-30 06:37 52.27194 104.35803 1630 ft 10 kts 144°
2026-04-30 06:37 52.27177 104.35922 1632 ft 15 kts 86°
2026-04-30 06:38 52.27182 104.36093 1628 ft 15 kts 87°
2026-04-30 06:38 52.27183 104.36258 1628 ft 14 kts 99°
2026-04-30 06:38 52.27153 104.36411 1628 ft 16 kts 110°
2026-04-30 06:38 52.27107 104.36611 1629 ft 20 kts 111°
2026-04-30 06:39 52.27058 104.36825 1631 ft 20 kts 110°
2026-04-30 06:39 52.27011 104.37032 1631 ft 19 kts 110°
2026-04-30 06:39 52.27002 104.37236 1633 ft 19 kts 81°
2026-04-30 06:39 52.26953 104.37462 1629 ft 27 kts 113°
2026-04-30 06:40 52.26861 104.37810 1634 ft 39 kts 113°
2026-04-30 06:40 52.26748 104.38236 1640 ft 40 kts 113°
2026-04-30 06:40 52.26644 104.38627 1645 ft 35 kts 114°
2026-04-30 06:40 52.26553 104.38968 1650 ft 30 kts 113°
2026-04-30 06:41 52.26472 104.39273 1660 ft 29 kts 113°
2026-04-30 06:41 52.26395 104.39562 1658 ft 27 kts 113°
2026-04-30 06:41 52.26322 104.39836 1663 ft 25 kts 113°
2026-04-30 06:41 52.26254 104.40093 1668 ft 24 kts 114°
2026-04-30 06:42 52.26190 104.40335 1674 ft 23 kts 113°
2026-04-30 06:42 52.26128 104.40568 1675 ft 22 kts 113°
2026-04-30 06:42 52.26068 104.40795 1674 ft 21 kts 114°
2026-04-30 06:42 52.26009 104.41015 1677 ft 21 kts 113°
2026-04-30 06:43 52.26053 104.41200 1682 ft 20 kts 24°
2026-04-30 06:43 52.26180 104.41288 1682 ft 20 kts 14°
2026-04-30 06:43 52.26250 104.41207 1685 ft 24 kts 292°
2026-04-30 06:43 52.26349 104.40835 1673 ft 59 kts 294°
2026-04-30 06:44 52.26603 104.39892 1664 ft 121 kts 293°
2026-04-30 06:44 52.27014 104.38369 1647 ft 171 kts 293°
2026-04-30 06:44 52.27472 104.36497 2201 ft 173 kts 292°
2026-04-30 06:44 52.27848 104.34590 2929 ft 183 kts 275°
2026-04-30 06:45 52.27431 104.32559 3384 ft 204 kts 239°
2026-04-30 06:45 52.26819 104.30397 3500 ft 218 kts 270°
2026-04-30 06:45 52.27106 104.27945 3792 ft 230 kts 288°
2026-04-30 06:45 52.27574 104.25314 4100 ft 246 kts 288°
2026-04-30 06:46 52.28048 104.22630 4846 ft 248 kts 287°
2026-04-30 06:46 52.28519 104.19902 5535 ft 249 kts 287°
2026-04-30 06:46 52.28975 104.17203 6315 ft 248 kts 287°
2026-04-30 06:46 52.29435 104.14444 6863 ft 254 kts 287°
2026-04-30 06:47 52.29887 104.11687 7492 ft 256 kts 287°
2026-04-30 06:47 52.30349 104.08838 8147 ft 257 kts 286°
2026-04-30 06:47 52.30804 104.06019 8657 ft 262 kts 286°
2026-04-30 06:47 52.31273 104.03097 9299 ft 264 kts 286°
2026-04-30 06:48 52.31736 104.00192 9941 ft 265 kts 286°
2026-04-30 06:48 52.32195 103.97301 10479 ft 270 kts 286°
2026-04-30 06:48 52.32687 103.94199 10656 ft 288 kts 286°
2026-04-30 06:48 52.33197 103.90974 10808 ft 305 kts 286°
2026-04-30 06:49 52.33750 103.87470 10927 ft 323 kts 285°
2026-04-30 06:49 52.34322 103.83823 11087 ft 339 kts 285°
2026-04-30 06:49 52.34917 103.80025 11460 ft 347 kts 285°
2026-04-30 06:49 52.35514 103.76195 12050 ft 349 kts 285°
2026-04-30 06:50 52.36115 103.72332 12649 ft 351 kts 286°
2026-04-30 06:50 52.36718 103.68449 13218 ft 354 kts 286°
2026-04-30 06:50 52.37325 103.64531 13815 ft 357 kts 286°
2026-04-30 06:50 52.37938 103.60569 14384 ft 360 kts 286°
2026-04-30 06:51 52.38552 103.56591 14934 ft 362 kts 286°
2026-04-30 06:51 52.39169 103.52580 15471 ft 366 kts 286°
2026-04-30 06:51 52.39792 103.48515 15995 ft 369 kts 286°
2026-04-30 06:51 52.40419 103.44427 16527 ft 372 kts 286°
2026-04-30 06:52 52.41051 103.40291 17054 ft 375 kts 286°
2026-04-30 06:52 52.41683 103.36133 17576 ft 378 kts 286°
2026-04-30 06:52 52.42321 103.31942 18093 ft 381 kts 285°
2026-04-30 06:52 52.42956 103.27758 18594 ft 384 kts 285°
2026-04-30 06:53 52.43609 103.23439 19027 ft 387 kts 285°
2026-04-30 06:53 52.44353 103.19195 19445 ft 389 kts 294°
2026-04-30 06:53 52.45733 103.15389 19874 ft 389 kts 306°
2026-04-30 06:53 52.47260 103.11727 20334 ft 391 kts 305°
2026-04-30 06:54 52.48778 103.08013 20752 ft 394 kts 305°
2026-04-30 06:54 52.50300 103.04245 21160 ft 397 kts 305°
2026-04-30 06:54 52.51819 103.00453 21562 ft 399 kts 305°
2026-04-30 06:54 52.53350 102.96618 21978 ft 402 kts 305°
2026-04-30 06:55 52.54881 102.92766 22383 ft 404 kts 305°
2026-04-30 06:55 52.56417 102.88896 22845 ft 405 kts 305°
2026-04-30 06:55 52.57962 102.84995 23245 ft 408 kts 305°
2026-04-30 06:55 52.59512 102.81077 23588 ft 411 kts 305°
2026-04-30 06:56 52.61078 102.77113 23917 ft 414 kts 305°
2026-04-30 06:56 52.62645 102.73140 24257 ft 415 kts 305°
2026-04-30 06:56 52.64216 102.69151 24585 ft 416 kts 305°
2026-04-30 06:56 52.65796 102.65133 24913 ft 418 kts 306°
2026-04-30 06:57 52.67375 102.61111 25205 ft 419 kts 306°
2026-04-30 06:57 52.68964 102.57056 25506 ft 421 kts 306°
2026-04-30 06:57 52.70554 102.52995 25802 ft 423 kts 306°
2026-04-30 06:57 52.72148 102.48914 26097 ft 425 kts 306°
2026-04-30 06:58 52.73747 102.44815 26406 ft 426 kts 306°
2026-04-30 06:58 52.75357 102.40684 26668 ft 428 kts 306°
2026-04-30 06:58 52.76965 102.36546 26934 ft 430 kts 306°
2026-04-30 06:58 52.78584 102.32376 27209 ft 431 kts 306°
2026-04-30 06:59 52.80201 102.28204 27473 ft 432 kts 306°
2026-04-30 06:59 52.81822 102.24015 27731 ft 434 kts 306°
2026-04-30 06:59 52.83450 102.19798 28033 ft 434 kts 306°
2026-04-30 06:59 52.85068 102.15601 28399 ft 432 kts 306°
2026-04-30 07:00 52.86677 102.11418 28811 ft 430 kts 306°
2026-04-30 07:00 52.88281 102.07242 29197 ft 428 kts 306°
2026-04-30 07:00 52.89873 102.03093 29651 ft 426 kts 306°
2026-04-30 07:00 52.91453 101.98966 30181 ft 421 kts 306°
2026-04-30 07:01 52.93015 101.94880 30510 ft 420 kts 307°
2026-04-30 07:01 52.94578 101.90790 30718 ft 421 kts 306°
2026-04-30 07:01 52.96148 101.86673 30937 ft 422 kts 306°
2026-04-30 07:01 52.97710 101.82570 31241 ft 420 kts 306°
2026-04-30 07:02 52.99264 101.78480 31548 ft 419 kts 306°
2026-04-30 07:02 53.00818 101.74384 31784 ft 418 kts 306°
2026-04-30 07:02 53.02366 101.70299 32001 ft 419 kts 306°
2026-04-30 07:02 53.03912 101.66210 32238 ft 418 kts 306°
2026-04-30 07:03 53.05459 101.62112 32521 ft 417 kts 306°
2026-04-30 07:03 53.06995 101.58036 32774 ft 416 kts 306°
2026-04-30 07:03 53.08534 101.53947 33010 ft 416 kts 306°
2026-04-30 07:03 53.10066 101.49869 33224 ft 416 kts 306°
2026-04-30 07:04 53.11594 101.45795 33496 ft 415 kts 306°
2026-04-30 07:04 53.13120 101.41720 33757 ft 413 kts 306°
2026-04-30 07:04 53.14637 101.37661 33971 ft 413 kts 306°
2026-04-30 07:04 53.16154 101.33598 34174 ft 413 kts 306°
2026-04-30 07:05 53.19201 101.25420 34241 ft 416 kts 306°
2026-04-30 07:05 53.22239 101.17230 34257 ft 414 kts 306°
2026-04-30 07:06 53.25256 101.09073 34272 ft 412 kts 306°
2026-04-30 07:06 53.28274 101.00891 34256 ft 411 kts 305°
2026-04-30 07:07 53.31240 100.92817 34249 ft 410 kts 305°
2026-04-30 07:07 53.34212 100.84698 34256 ft 408 kts 305°
2026-04-30 07:08 53.37173 100.76581 34250 ft 408 kts 305°
2026-04-30 07:08 53.40147 100.68404 34268 ft 409 kts 305°
2026-04-30 07:09 53.43107 100.60239 34260 ft 410 kts 304°
2026-04-30 07:09 53.46071 100.52038 34278 ft 412 kts 304°
2026-04-30 07:10 53.49020 100.43846 34271 ft 413 kts 304°
2026-04-30 07:10 53.51994 100.35560 34255 ft 415 kts 304°
2026-04-30 07:11 53.54967 100.27251 34264 ft 416 kts 304°
2026-04-30 07:11 53.57945 100.18895 34281 ft 417 kts 304°
2026-04-30 07:12 53.60925 100.10508 34275 ft 418 kts 304°
2026-04-30 07:12 53.63918 100.02057 34278 ft 418 kts 304°
2026-04-30 07:13 53.66887 99.93640 34278 ft 417 kts 304°
2026-04-30 07:13 53.69847 99.85224 34268 ft 417 kts 304°
2026-04-30 07:14 53.72795 99.76814 34281 ft 415 kts 304°
2026-04-30 07:14 53.75723 99.68431 34269 ft 414 kts 303°
2026-04-30 07:15 53.78642 99.60046 34275 ft 413 kts 303°
2026-04-30 07:15 53.81550 99.51667 34274 ft 413 kts 303°
2026-04-30 07:16 53.84448 99.43286 34260 ft 412 kts 303°
2026-04-30 07:16 53.87334 99.34912 34276 ft 411 kts 303°
2026-04-30 07:17 53.90209 99.26542 34280 ft 411 kts 303°
2026-04-30 07:18 53.94516 99.13947 34274 ft 411 kts 303°
2026-04-30 07:18 53.97382 99.05530 34275 ft 412 kts 303°
2026-04-30 07:19 54.00243 98.97099 34250 ft 412 kts 303°
2026-04-30 07:19 54.03097 98.88664 34263 ft 411 kts 302°
2026-04-30 07:20 54.05935 98.80243 34263 ft 411 kts 302°
2026-04-30 07:20 54.08771 98.71805 34258 ft 410 kts 302°
2026-04-30 07:21 54.11118 98.64800 34265 ft 410 kts 302°
2026-04-30 07:21 54.13939 98.56353 34265 ft 410 kts 302°
2026-04-30 07:22 54.18156 98.43670 34253 ft 409 kts 302°
2026-04-30 07:22 54.20961 98.35198 34272 ft 410 kts 302°
2026-04-30 07:23 54.23762 98.26706 34275 ft 410 kts 302°
2026-04-30 07:23 54.26558 98.18204 34267 ft 411 kts 302°
2026-04-30 07:24 54.29354 98.09667 34267 ft 411 kts 302°
2026-04-30 07:24 54.32147 98.01115 34270 ft 411 kts 302°
2026-04-30 07:25 54.34934 97.92555 34263 ft 411 kts 302°
2026-04-30 07:25 54.37726 97.84003 34265 ft 411 kts 302°
2026-04-30 07:26 54.40509 97.75463 34269 ft 410 kts 302°
2026-04-30 07:26 54.43289 97.66898 34263 ft 410 kts 301°
2026-04-30 07:27 54.46060 97.58327 34264 ft 410 kts 301°
2026-04-30 07:27 54.48824 97.49748 34241 ft 410 kts 301°
2026-04-30 07:28 54.51591 97.41127 34258 ft 409 kts 301°
2026-04-30 07:28 54.54337 97.32539 34275 ft 409 kts 301°
2026-04-30 07:29 54.57078 97.23938 34274 ft 410 kts 301°
2026-04-30 07:29 54.59814 97.15322 34263 ft 409 kts 301°
2026-04-30 07:30 54.63902 97.02390 34267 ft 409 kts 301°
2026-04-30 07:31 54.66615 96.93769 34265 ft 409 kts 301°
2026-04-30 07:31 54.69327 96.85119 34278 ft 409 kts 301°
2026-04-30 07:32 54.72035 96.76454 34258 ft 410 kts 301°
2026-04-30 07:32 54.74738 96.67772 34278 ft 410 kts 301°
2026-04-30 07:33 54.77392 96.59024 34259 ft 411 kts 300°
2026-04-30 07:33 54.79992 96.50223 34248 ft 411 kts 299°
2026-04-30 07:34 54.82593 96.41393 34267 ft 411 kts 299°
2026-04-30 07:34 54.85195 96.32552 34284 ft 412 kts 299°
2026-04-30 07:35 54.87795 96.23701 34285 ft 412 kts 299°
2026-04-30 07:35 54.90397 96.14809 34274 ft 413 kts 299°
2026-04-30 07:36 54.92996 96.05894 34264 ft 414 kts 299°
2026-04-30 07:36 54.95590 95.96962 34262 ft 413 kts 299°
2026-04-30 07:37 54.98177 95.88019 34274 ft 414 kts 299°
2026-04-30 07:37 55.00755 95.79074 34275 ft 414 kts 299°
2026-04-30 07:38 55.03333 95.70096 34273 ft 414 kts 299°
2026-04-30 07:38 55.05907 95.61097 34272 ft 415 kts 299°
2026-04-30 07:39 55.08470 95.52097 34275 ft 415 kts 298°
2026-04-30 07:39 55.11032 95.43072 34261 ft 414 kts 298°
2026-04-30 07:40 55.13584 95.34043 34272 ft 414 kts 298°
2026-04-30 07:40 55.16132 95.24995 34283 ft 415 kts 298°
2026-04-30 07:41 55.18676 95.15923 34274 ft 415 kts 298°
2026-04-30 07:41 55.21229 95.06785 34271 ft 416 kts 298°
2026-04-30 07:42 55.23763 94.97680 34272 ft 416 kts 298°
2026-04-30 07:42 55.26293 94.88560 34269 ft 416 kts 299°
2026-04-30 07:43 55.29101 94.79736 34278 ft 414 kts 303°
2026-04-30 07:43 55.32055 94.71038 34270 ft 415 kts 303°
2026-04-30 07:44 55.34997 94.62310 34272 ft 415 kts 302°
2026-04-30 07:44 55.37913 94.53548 34269 ft 415 kts 302°
2026-04-30 07:45 55.40815 94.44765 34266 ft 415 kts 302°
2026-04-30 07:45 55.43701 94.35989 34264 ft 415 kts 302°
2026-04-30 07:46 55.46586 94.27186 34283 ft 415 kts 302°
2026-04-30 07:46 55.49469 94.18361 34264 ft 415 kts 302°
2026-04-30 07:47 55.52343 94.09526 34259 ft 415 kts 302°
2026-04-30 07:47 55.55203 94.00705 34262 ft 414 kts 302°
2026-04-30 07:48 55.58058 93.91868 34266 ft 414 kts 302°
2026-04-30 07:48 55.60901 93.83032 34260 ft 413 kts 301°
2026-04-30 07:49 55.63736 93.74192 34263 ft 413 kts 301°
2026-04-30 07:49 55.66559 93.65354 34258 ft 413 kts 301°
2026-04-30 07:50 55.69383 93.56481 34257 ft 413 kts 301°
2026-04-30 07:50 55.72204 93.47590 34263 ft 413 kts 301°
2026-04-30 07:51 55.75017 93.38680 34268 ft 414 kts 301°
2026-04-30 07:51 55.77775 93.29724 34253 ft 414 kts 300°
2026-04-30 07:52 55.80514 93.20732 34255 ft 413 kts 300°
2026-04-30 07:52 55.83249 93.11739 34249 ft 413 kts 300°
2026-04-30 07:53 55.85975 93.02753 34257 ft 412 kts 300°
2026-04-30 07:53 55.88688 92.93781 34252 ft 412 kts 300°
2026-04-30 07:54 55.91397 92.84788 34246 ft 412 kts 300°
2026-04-30 07:54 55.94097 92.75789 34246 ft 411 kts 299°
2026-04-30 07:55 55.96789 92.66785 34260 ft 411 kts 299°
2026-04-30 07:55 55.99472 92.57777 34255 ft 411 kts 299°
2026-04-30 07:56 56.02155 92.48737 34280 ft 412 kts 299°
2026-04-30 07:56 56.04836 92.39687 34268 ft 411 kts 298°
2026-04-30 07:57 56.07508 92.30636 34262 ft 411 kts 298°
2026-04-30 07:57 56.10166 92.21602 34252 ft 410 kts 298°
2026-04-30 07:58 56.12387 92.14020 34251 ft 409 kts 298°
2026-04-30 07:58 56.15021 92.05000 34255 ft 408 kts 298°
2026-04-30 07:59 56.17649 91.95966 34254 ft 408 kts 298°
2026-04-30 07:59 56.20269 91.86923 34242 ft 408 kts 298°
2026-04-30 08:00 56.24183 91.73348 34246 ft 408 kts 298°
2026-04-30 08:00 56.26785 91.64278 34236 ft 408 kts 297°
2026-04-30 08:01 56.29379 91.55203 34242 ft 409 kts 297°
2026-04-30 08:01 56.31976 91.46081 34251 ft 410 kts 297°
2026-04-30 08:02 56.35863 91.32358 34235 ft 410 kts 297°
2026-04-30 08:03 56.41018 91.14036 34214 ft 409 kts 297°
2026-04-30 08:04 56.43578 91.04880 34231 ft 408 kts 297°
2026-04-30 08:04 56.46124 90.95740 34238 ft 407 kts 296°
2026-04-30 08:05 56.48665 90.86581 34240 ft 407 kts 296°
2026-04-30 08:05 56.51197 90.77415 34236 ft 407 kts 296°
2026-04-30 08:06 56.53723 90.68237 34231 ft 407 kts 296°
2026-04-30 08:06 56.56243 90.59046 34236 ft 407 kts 296°
2026-04-30 08:07 56.58752 90.49856 34240 ft 407 kts 296°
2026-04-30 08:07 56.61260 90.40630 34224 ft 408 kts 296°
2026-04-30 08:08 56.63765 90.31381 34225 ft 408 kts 296°
2026-04-30 08:08 56.66265 90.22110 34231 ft 409 kts 296°
2026-04-30 08:09 56.68758 90.12831 34233 ft 409 kts 296°
2026-04-30 08:09 56.71250 90.03515 34230 ft 409 kts 296°
2026-04-30 08:10 56.73738 89.94177 34224 ft 410 kts 295°
2026-04-30 08:10 56.76215 89.84839 34223 ft 410 kts 295°
2026-04-30 08:11 56.78691 89.75466 34225 ft 410 kts 295°
2026-04-30 08:11 56.81165 89.66064 34220 ft 410 kts 295°
2026-04-30 08:12 56.83634 89.56643 34313 ft 413 kts 295°
2026-04-30 08:12 56.84787 89.52229 34615 ft 409 kts 295°
2026-04-30 08:12 56.85997 89.47590 35081 ft 402 kts 295°
2026-04-30 08:12 56.87194 89.42986 35261 ft 402 kts 295°
2026-04-30 08:13 56.88391 89.38376 35367 ft 404 kts 295°
2026-04-30 08:13 56.90814 89.29013 35536 ft 408 kts 295°
2026-04-30 08:13 56.92025 89.24316 35696 ft 408 kts 295°
2026-04-30 08:14 56.93233 89.19624 35891 ft 407 kts 295°
2026-04-30 08:14 56.94437 89.14940 36052 ft 407 kts 295°
2026-04-30 08:14 56.95638 89.10255 36166 ft 407 kts 295°
2026-04-30 08:15 56.98048 89.00826 36210 ft 410 kts 295°
2026-04-30 08:15 57.00449 88.91390 36210 ft 408 kts 294°
2026-04-30 08:16 57.02838 88.81962 36199 ft 407 kts 294°
2026-04-30 08:16 57.05207 88.72570 36206 ft 405 kts 294°
2026-04-30 08:17 57.07568 88.63174 36206 ft 404 kts 294°
2026-04-30 08:17 57.09918 88.53781 36204 ft 404 kts 294°
2026-04-30 08:18 57.12257 88.44390 36208 ft 404 kts 294°
2026-04-30 08:18 57.14594 88.34976 36202 ft 404 kts 294°
2026-04-30 08:19 57.16905 88.25616 36201 ft 404 kts 294°
2026-04-30 08:19 57.19219 88.16190 36196 ft 403 kts 293°
2026-04-30 08:20 57.21525 88.06758 36201 ft 403 kts 293°
2026-04-30 08:20 57.23821 87.97327 36199 ft 403 kts 293°
2026-04-30 08:21 57.26115 87.87861 36197 ft 404 kts 293°
2026-04-30 08:21 57.28405 87.78375 36193 ft 404 kts 293°
2026-04-30 08:22 57.30685 87.68884 36191 ft 405 kts 293°
2026-04-30 08:22 57.32964 87.59360 36187 ft 405 kts 292°
2026-04-30 08:23 57.35237 87.49819 36194 ft 405 kts 292°
2026-04-30 08:23 57.37505 87.40256 36194 ft 406 kts 292°
2026-04-30 08:24 57.39763 87.30692 36184 ft 405 kts 292°
2026-04-30 08:24 57.42016 87.21106 36184 ft 405 kts 292°
2026-04-30 08:25 57.44244 87.11584 36186 ft 404 kts 292°
2026-04-30 08:25 57.46476 87.02002 36184 ft 404 kts 292°
2026-04-30 08:26 57.48712 86.92363 36181 ft 403 kts 292°
2026-04-30 08:26 57.50903 86.82875 36184 ft 402 kts 292°
2026-04-30 08:27 57.53101 86.73311 36183 ft 401 kts 291°
2026-04-30 08:27 57.55285 86.63767 36184 ft 401 kts 291°
2026-04-30 08:28 57.57464 86.54203 36178 ft 401 kts 291°
2026-04-30 08:28 57.59634 86.44629 36180 ft 401 kts 291°
2026-04-30 08:29 57.61800 86.35038 36173 ft 401 kts 291°
2026-04-30 08:29 57.63958 86.25432 36185 ft 401 kts 291°
2026-04-30 08:30 57.66104 86.15838 36177 ft 401 kts 291°
2026-04-30 08:30 57.68245 86.06223 36181 ft 401 kts 291°
2026-04-30 08:31 57.70378 85.96600 36181 ft 400 kts 291°
2026-04-30 08:31 57.72503 85.86968 36179 ft 400 kts 291°
2026-04-30 08:32 57.74617 85.77342 36175 ft 400 kts 290°
2026-04-30 08:32 57.76727 85.67692 36175 ft 400 kts 290°
2026-04-30 08:33 57.78815 85.58097 36175 ft 400 kts 290°
2026-04-30 08:33 57.80922 85.48365 36174 ft 400 kts 290°
2026-04-30 08:34 57.82991 85.38768 36177 ft 400 kts 290°
2026-04-30 08:34 57.85070 85.29079 36177 ft 400 kts 290°
2026-04-30 08:35 57.87143 85.19374 36168 ft 400 kts 290°
2026-04-30 08:35 57.89207 85.09661 36160 ft 400 kts 290°
2026-04-30 08:36 57.91259 84.99958 36163 ft 400 kts 290°
2026-04-30 08:36 57.93307 84.90231 36166 ft 400 kts 290°
2026-04-30 08:37 57.95347 84.80498 36160 ft 399 kts 290°
2026-04-30 08:37 57.97374 84.70775 36153 ft 399 kts 290°
2026-04-30 08:38 57.99397 84.61029 36151 ft 399 kts 290°
2026-04-30 08:38 58.01411 84.51274 36151 ft 399 kts 289°
2026-04-30 08:39 58.03418 84.41512 36151 ft 399 kts 290°
2026-04-30 08:39 58.05402 84.31809 36139 ft 399 kts 290°
2026-04-30 08:40 58.07402 84.21985 36168 ft 399 kts 289°
2026-04-30 08:40 58.09372 84.12262 36155 ft 399 kts 289°
2026-04-30 08:41 58.11346 84.02467 36141 ft 398 kts 289°
2026-04-30 08:41 58.13311 83.92671 36135 ft 398 kts 289°
2026-04-30 08:42 58.15262 83.82895 36130 ft 397 kts 289°
2026-04-30 08:42 58.17206 83.73109 36127 ft 396 kts 289°
2026-04-30 08:43 58.18811 83.64990 36129 ft 396 kts 289°
2026-04-30 08:43 58.20735 83.55215 36123 ft 395 kts 289°
2026-04-30 08:44 58.22648 83.45444 36125 ft 395 kts 289°
2026-04-30 08:44 58.24552 83.35676 36125 ft 394 kts 289°
2026-04-30 08:45 58.26443 83.25925 36124 ft 394 kts 289°
2026-04-30 08:45 58.28328 83.16153 36121 ft 394 kts 289°
2026-04-30 08:46 58.30206 83.06372 36134 ft 394 kts 288°
2026-04-30 08:46 58.32079 82.96572 36123 ft 394 kts 288°
2026-04-30 08:47 58.33576 82.86585 36129 ft 393 kts 282°
2026-04-30 08:47 58.34797 82.76443 36121 ft 393 kts 282°
2026-04-30 08:48 58.36015 82.66300 36117 ft 393 kts 282°
2026-04-30 08:48 58.37235 82.56156 36121 ft 393 kts 282°
2026-04-30 08:49 58.38449 82.46028 36116 ft 392 kts 282°
2026-04-30 08:49 58.39658 82.35884 36113 ft 392 kts 282°
2026-04-30 08:50 58.40859 82.25739 36114 ft 392 kts 282°
2026-04-30 08:50 58.42050 82.15595 36114 ft 392 kts 282°
2026-04-30 08:51 58.43231 82.05469 36113 ft 391 kts 282°
2026-04-30 08:51 58.44404 81.95327 36116 ft 391 kts 282°
2026-04-30 08:52 58.45569 81.85183 36115 ft 391 kts 281°
2026-04-30 08:52 58.46725 81.75046 36108 ft 390 kts 281°
2026-04-30 08:53 58.47869 81.64925 36109 ft 390 kts 281°
2026-04-30 08:53 58.49007 81.54788 36111 ft 390 kts 281°
2026-04-30 08:54 58.50136 81.44653 36105 ft 389 kts 281°
2026-04-30 08:54 58.51253 81.34549 36105 ft 388 kts 281°
2026-04-30 08:55 58.52361 81.24449 36102 ft 387 kts 281°
2026-04-30 08:55 58.53458 81.14373 36110 ft 386 kts 281°
2026-04-30 08:56 58.54537 81.04382 36100 ft 385 kts 281°
2026-04-30 08:56 58.55612 80.94346 36103 ft 384 kts 280°
2026-04-30 08:57 58.56683 80.84275 36100 ft 383 kts 280°
2026-04-30 08:57 58.57731 80.74330 36100 ft 383 kts 280°
2026-04-30 08:58 58.58778 80.64324 36101 ft 383 kts 280°
2026-04-30 08:58 58.59817 80.54316 36112 ft 383 kts 280°
2026-04-30 08:59 58.60846 80.44315 36096 ft 383 kts 280°
2026-04-30 08:59 58.61870 80.34289 36094 ft 383 kts 280°
2026-04-30 09:00 58.62886 80.24257 36095 ft 383 kts 280°
2026-04-30 09:00 58.63894 80.14222 36096 ft 383 kts 279°
2026-04-30 09:01 58.64892 80.04196 36095 ft 383 kts 279°
2026-04-30 09:01 58.65886 79.94139 36093 ft 384 kts 279°
2026-04-30 09:02 58.67362 79.79048 36087 ft 383 kts 279°
2026-04-30 09:02 58.68337 79.69005 36088 ft 382 kts 280°
2026-04-30 09:03 58.69701 79.59140 36090 ft 381 kts 283°
2026-04-30 09:03 58.71159 79.49357 36089 ft 380 kts 283°
2026-04-30 09:04 58.72602 79.39573 36089 ft 379 kts 283°
2026-04-30 09:04 58.74025 79.29798 36086 ft 379 kts 283°
2026-04-30 09:05 58.75434 79.20029 36099 ft 378 kts 283°
2026-04-30 09:05 58.76829 79.10282 36089 ft 378 kts 283°
2026-04-30 09:06 58.78218 79.00522 36089 ft 377 kts 283°
2026-04-30 09:06 58.79597 78.90768 36089 ft 377 kts 283°
2026-04-30 09:07 58.80967 78.81016 36094 ft 376 kts 282°
2026-04-30 09:07 58.82330 78.71259 36092 ft 376 kts 282°
2026-04-30 09:08 58.83683 78.61510 36096 ft 376 kts 282°
2026-04-30 09:08 58.85032 78.51734 36098 ft 377 kts 282°
2026-04-30 09:09 58.86373 78.41950 36098 ft 377 kts 282°
2026-04-30 09:09 58.87705 78.32168 36098 ft 377 kts 282°
2026-04-30 09:10 58.89033 78.22359 36104 ft 377 kts 282°
2026-04-30 09:10 58.90345 78.12605 36102 ft 377 kts 282°
2026-04-30 09:11 58.91659 78.02774 36106 ft 377 kts 282°
2026-04-30 09:11 58.92964 77.92947 36108 ft 378 kts 282°
2026-04-30 09:12 58.94264 77.83094 36114 ft 377 kts 281°
2026-04-30 09:12 58.95556 77.73235 36109 ft 377 kts 281°
2026-04-30 09:13 58.96840 77.63373 36111 ft 377 kts 281°
2026-04-30 09:13 58.98114 77.53529 36112 ft 377 kts 281°
2026-04-30 09:14 58.99382 77.43662 36168 ft 377 kts 281°
2026-04-30 09:14 59.00643 77.33782 36118 ft 377 kts 281°
2026-04-30 09:15 59.01893 77.23920 36116 ft 376 kts 281°
2026-04-30 09:15 59.03136 77.14055 36129 ft 376 kts 280°
2026-04-30 09:16 59.04368 77.04205 36122 ft 375 kts 280°
2026-04-30 09:16 59.05590 76.94370 36121 ft 374 kts 280°
2026-04-30 09:17 59.06802 76.84570 36121 ft 373 kts 280°
2026-04-30 09:17 59.08004 76.74766 36122 ft 372 kts 280°
2026-04-30 09:18 59.09196 76.65036 36119 ft 372 kts 280°
2026-04-30 09:18 59.10401 76.55178 36127 ft 372 kts 279°
2026-04-30 09:19 59.11575 76.45453 36122 ft 371 kts 279°
2026-04-30 09:19 59.12745 76.35583 36127 ft 372 kts 279°
2026-04-30 09:20 59.13893 76.25833 36127 ft 372 kts 279°
2026-04-30 09:20 59.15052 76.15931 36179 ft 373 kts 279°
2026-04-30 09:21 59.16199 76.06069 36140 ft 374 kts 279°
2026-04-30 09:21 59.17344 75.96170 36139 ft 374 kts 279°
2026-04-30 09:22 59.18480 75.86267 36128 ft 374 kts 279°
2026-04-30 09:22 59.19616 75.76351 36130 ft 374 kts 279°
2026-04-30 09:23 59.20744 75.66445 36139 ft 374 kts 279°
2026-04-30 09:23 59.21865 75.56536 36141 ft 373 kts 278°
2026-04-30 09:24 59.22975 75.46640 36138 ft 373 kts 278°
2026-04-30 09:24 59.24076 75.36756 36139 ft 372 kts 278°
2026-04-30 09:25 59.25169 75.26869 36142 ft 372 kts 278°
2026-04-30 09:25 59.26252 75.16997 36151 ft 372 kts 278°
2026-04-30 09:26 59.27328 75.07117 36153 ft 371 kts 278°
2026-04-30 09:26 59.28216 74.98911 36157 ft 371 kts 278°
2026-04-30 09:27 59.29276 74.89037 36153 ft 371 kts 278°
2026-04-30 09:27 59.30330 74.79146 36155 ft 372 kts 278°
2026-04-30 09:28 59.31380 74.69233 36150 ft 372 kts 278°
2026-04-30 09:28 59.32420 74.59329 36158 ft 371 kts 277°
2026-04-30 09:29 59.33946 74.49623 36164 ft 377 kts 288°
2026-04-30 09:29 59.36581 74.40613 36163 ft 385 kts 296°
2026-04-30 09:30 59.39623 74.31969 36153 ft 385 kts 297°
2026-04-30 09:30 59.42660 74.23331 36153 ft 384 kts 296°
2026-04-30 09:31 59.45675 74.14677 36152 ft 383 kts 296°
2026-04-30 09:31 59.48669 74.06026 36151 ft 383 kts 296°
2026-04-30 09:32 59.51662 73.97334 36164 ft 383 kts 296°
2026-04-30 09:32 59.54645 73.88638 36153 ft 383 kts 296°
2026-04-30 09:33 59.57623 73.79924 36150 ft 383 kts 296°
2026-04-30 09:33 59.60594 73.71199 36152 ft 383 kts 296°
2026-04-30 09:34 59.63557 73.62463 36152 ft 383 kts 296°
2026-04-30 09:34 59.66517 73.53705 36150 ft 383 kts 296°
2026-04-30 09:35 59.69471 73.44930 36147 ft 383 kts 296°
2026-04-30 09:35 59.72426 73.36119 36152 ft 385 kts 295°
2026-04-30 09:36 59.75384 73.27265 36151 ft 386 kts 295°
2026-04-30 09:36 59.78344 73.18375 36148 ft 386 kts 295°
2026-04-30 09:37 59.81301 73.09463 36148 ft 386 kts 295°
2026-04-30 09:37 59.84254 73.00524 36148 ft 387 kts 295°
2026-04-30 09:38 59.87201 72.91570 36146 ft 387 kts 295°
2026-04-30 09:38 59.90143 72.82598 36146 ft 387 kts 295°
2026-04-30 09:39 59.93083 72.73596 36155 ft 388 kts 295°
2026-04-30 09:39 59.96021 72.64566 36141 ft 389 kts 295°
2026-04-30 09:40 59.98977 72.55443 36143 ft 389 kts 295°
2026-04-30 09:40 60.01891 72.46418 36143 ft 389 kts 295°
2026-04-30 09:41 60.04819 72.37311 36142 ft 389 kts 295°
2026-04-30 09:41 60.07742 72.28189 36143 ft 389 kts 295°
2026-04-30 09:42 60.10658 72.19048 36139 ft 389 kts 295°
2026-04-30 09:42 60.13565 72.09901 36190 ft 390 kts 295°
2026-04-30 09:43 60.16498 72.00631 36148 ft 391 kts 294°
2026-04-30 09:43 60.19409 71.91400 36147 ft 391 kts 294°
2026-04-30 09:44 60.22292 71.82219 36141 ft 392 kts 294°
2026-04-30 09:44 60.25199 71.72927 36140 ft 392 kts 294°
2026-04-30 09:45 60.28102 71.63607 36140 ft 393 kts 294°
2026-04-30 09:45 60.31001 71.54266 36135 ft 393 kts 294°
2026-04-30 09:46 60.33887 71.44927 36208 ft 393 kts 294°
2026-04-30 09:46 60.36783 71.35514 36151 ft 395 kts 294°
2026-04-30 09:47 60.39686 71.26042 36134 ft 397 kts 294°
2026-04-30 09:47 60.42592 71.16522 36132 ft 398 kts 294°
2026-04-30 09:48 60.45496 71.06972 36132 ft 399 kts 294°
2026-04-30 09:48 60.48406 70.97361 36126 ft 400 kts 294°
2026-04-30 09:49 60.51315 70.87713 36125 ft 401 kts 294°
2026-04-30 09:49 60.54220 70.78036 36131 ft 401 kts 294°
2026-04-30 09:50 60.57125 70.68318 36133 ft 403 kts 294°
2026-04-30 09:50 60.60029 70.58567 36120 ft 403 kts 294°
2026-04-30 09:51 60.62922 70.48812 36121 ft 403 kts 293°
2026-04-30 09:51 60.65882 70.39088 36122 ft 404 kts 294°
2026-04-30 09:52 60.68878 70.29399 36123 ft 403 kts 294°
2026-04-30 09:52 60.71856 70.19697 36115 ft 403 kts 294°
2026-04-30 09:53 60.74797 70.10049 36120 ft 402 kts 294°
2026-04-30 09:53 60.77762 70.00278 36115 ft 402 kts 294°
2026-04-30 09:54 60.80680 69.90611 36112 ft 401 kts 294°
2026-04-30 09:54 60.83566 69.80839 36115 ft 400 kts 293°
2026-04-30 09:55 60.86431 69.71049 36108 ft 400 kts 293°
2026-04-30 09:55 60.89305 69.61200 36111 ft 400 kts 293°
2026-04-30 09:56 60.92142 69.51450 36107 ft 400 kts 293°
2026-04-30 09:56 60.94991 69.41620 36152 ft 400 kts 293°
2026-04-30 09:57 60.97853 69.31701 36134 ft 401 kts 294°
2026-04-30 09:57 61.00703 69.21787 36136 ft 402 kts 293°
2026-04-30 09:58 61.03082 69.11563 36141 ft 394 kts 282°
2026-04-30 09:58 61.04167 69.00603 36137 ft 389 kts 274°
2026-04-30 09:59 61.05592 68.78378 36122 ft 392 kts 274°
2026-04-30 10:00 61.06678 68.61597 36118 ft 394 kts 273°
2026-04-30 10:01 61.07752 68.44764 36090 ft 394 kts 273°
2026-04-30 10:02 61.08804 68.27953 36102 ft 394 kts 273°
2026-04-30 10:02 61.09489 68.16742 36097 ft 394 kts 273°
2026-04-30 10:03 61.10156 68.05509 36096 ft 393 kts 273°
2026-04-30 10:03 61.10812 67.94273 36090 ft 393 kts 273°
2026-04-30 10:04 61.11461 67.83031 36094 ft 394 kts 273°
2026-04-30 10:04 61.12100 67.71799 36093 ft 394 kts 272°
2026-04-30 10:05 61.12732 67.60537 36092 ft 394 kts 272°
2026-04-30 10:05 61.13354 67.49266 36086 ft 394 kts 272°
2026-04-30 10:06 61.13968 67.37990 36090 ft 394 kts 272°
2026-04-30 10:06 61.14571 67.26724 36090 ft 394 kts 272°
2026-04-30 10:07 61.15165 67.15434 36094 ft 394 kts 272°
2026-04-30 10:07 61.15751 67.04139 36087 ft 394 kts 272°
2026-04-30 10:08 61.16229 66.94763 36137 ft 394 kts 272°
2026-04-30 10:08 61.16798 66.83437 36092 ft 396 kts 272°
2026-04-30 10:09 61.17359 66.72071 36089 ft 397 kts 272°
2026-04-30 10:09 61.17912 66.60685 36088 ft 398 kts 272°
2026-04-30 10:10 61.18458 66.49237 36088 ft 400 kts 272°
2026-04-30 10:10 61.18997 66.37745 36079 ft 401 kts 271°
2026-04-30 10:11 61.19526 66.26221 36078 ft 402 kts 271°
2026-04-30 10:11 61.20047 66.14691 36074 ft 402 kts 271°
2026-04-30 10:12 61.20558 66.03130 36073 ft 402 kts 271°
2026-04-30 10:12 61.21060 65.91570 36074 ft 402 kts 271°
2026-04-30 10:13 61.21551 65.80020 36068 ft 401 kts 271°
2026-04-30 10:13 61.22029 65.68560 36066 ft 401 kts 271°
2026-04-30 10:14 61.22501 65.56987 36067 ft 400 kts 271°
2026-04-30 10:14 61.23186 65.39717 36064 ft 400 kts 271°
2026-04-30 10:15 61.23629 65.28268 36063 ft 400 kts 270°
2026-04-30 10:15 61.24065 65.16733 36060 ft 401 kts 270°
2026-04-30 10:16 61.24490 65.05204 36063 ft 401 kts 270°
2026-04-30 10:17 61.25113 64.87837 36062 ft 402 kts 270°
2026-04-30 10:17 61.25715 64.70450 36050 ft 403 kts 270°
2026-04-30 10:18 61.26106 64.58851 36057 ft 403 kts 270°
2026-04-30 10:19 61.26684 64.41388 36058 ft 404 kts 270°
2026-04-30 10:19 61.27070 64.29757 36055 ft 404 kts 270°
2026-04-30 10:20 61.27446 64.18101 36054 ft 404 kts 270°
2026-04-30 10:20 61.27991 64.00574 36050 ft 406 kts 270°
2026-04-30 10:21 61.28342 63.88859 36054 ft 406 kts 270°
2026-04-30 10:21 61.28684 63.77212 36053 ft 406 kts 269°
2026-04-30 10:22 61.29038 63.65419 36049 ft 407 kts 272°
2026-04-30 10:22 61.29942 63.53810 36043 ft 410 kts 276°
2026-04-30 10:23 61.30972 63.42136 36043 ft 410 kts 276°
2026-04-30 10:23 61.31966 63.30450 36045 ft 410 kts 275°
2026-04-30 10:24 61.32928 63.18752 36044 ft 410 kts 275°
2026-04-30 10:24 61.33872 63.07058 36035 ft 410 kts 275°
2026-04-30 10:25 61.34807 62.95358 36071 ft 409 kts 275°
2026-04-30 10:25 61.35734 62.83623 36051 ft 410 kts 275°
2026-04-30 10:26 61.36655 62.71872 36034 ft 411 kts 275°
2026-04-30 10:26 61.37566 62.60104 36042 ft 412 kts 275°
2026-04-30 10:27 61.38475 62.48298 36044 ft 412 kts 275°
2026-04-30 10:27 61.39375 62.36491 36031 ft 413 kts 275°
2026-04-30 10:28 61.40268 62.24639 36034 ft 413 kts 274°
2026-04-30 10:28 61.41150 62.12773 36035 ft 414 kts 274°
2026-04-30 10:29 61.42022 62.00917 36036 ft 414 kts 274°
2026-04-30 10:29 61.42884 61.89030 36036 ft 414 kts 274°
2026-04-30 10:30 61.43736 61.77129 36037 ft 415 kts 274°
2026-04-30 10:30 61.44579 61.65216 36037 ft 415 kts 274°
2026-04-30 10:31 61.45414 61.53260 36037 ft 416 kts 274°
2026-04-30 10:31 61.46234 61.41364 36034 ft 416 kts 274°
2026-04-30 10:32 61.47051 61.29375 36034 ft 416 kts 274°
2026-04-30 10:32 61.47856 61.17390 36033 ft 417 kts 274°
2026-04-30 10:33 61.48656 61.05373 36034 ft 417 kts 274°
2026-04-30 10:33 61.49450 60.93351 36034 ft 417 kts 274°
2026-04-30 10:34 61.50233 60.81320 36030 ft 417 kts 274°
2026-04-30 10:34 61.51006 60.69282 36075 ft 417 kts 274°
2026-04-30 10:35 61.51768 60.57237 36044 ft 418 kts 273°
2026-04-30 10:35 61.52522 60.45151 36039 ft 418 kts 273°
2026-04-30 10:36 61.53265 60.33055 36035 ft 418 kts 273°
2026-04-30 10:36 61.53997 60.20969 36036 ft 419 kts 273°
2026-04-30 10:37 61.54722 60.08850 36034 ft 419 kts 273°
2026-04-30 10:37 61.55430 59.96804 36038 ft 419 kts 273°
2026-04-30 10:38 61.56135 59.84669 36039 ft 419 kts 273°
2026-04-30 10:38 61.56830 59.72534 36043 ft 419 kts 273°
2026-04-30 10:39 61.57514 59.60413 36046 ft 419 kts 272°
2026-04-30 10:39 61.58189 59.48265 36053 ft 419 kts 273°
2026-04-30 10:40 61.58854 59.36095 36058 ft 420 kts 272°
2026-04-30 10:40 61.59508 59.23917 36044 ft 421 kts 272°
2026-04-30 10:41 61.60154 59.11688 36053 ft 422 kts 272°
2026-04-30 10:41 61.60790 58.99430 36064 ft 422 kts 272°
2026-04-30 10:42 61.61416 58.87143 36057 ft 423 kts 272°
2026-04-30 10:42 61.62032 58.74854 36066 ft 424 kts 272°
2026-04-30 10:43 61.62638 58.62519 36052 ft 424 kts 272°
2026-04-30 10:43 61.63236 58.50165 36056 ft 425 kts 272°
2026-04-30 10:44 61.63854 58.37889 36060 ft 425 kts 273°
2026-04-30 10:44 61.64532 58.25467 36054 ft 425 kts 273°
2026-04-30 10:45 61.65196 58.13191 36043 ft 425 kts 272°
2026-04-30 10:45 61.65844 58.00841 36051 ft 424 kts 272°
2026-04-30 10:46 61.66477 57.88495 36048 ft 424 kts 272°
2026-04-30 10:46 61.67097 57.76180 36057 ft 423 kts 272°
2026-04-30 10:47 61.67704 57.63859 36059 ft 423 kts 272°
2026-04-30 10:47 61.68301 57.51551 36057 ft 422 kts 272°
2026-04-30 10:48 61.68885 57.39251 36059 ft 422 kts 272°
2026-04-30 10:48 61.69457 57.26980 36072 ft 422 kts 272°
2026-04-30 10:49 61.70019 57.14666 36065 ft 422 kts 272°
2026-04-30 10:49 61.70568 57.02415 36063 ft 423 kts 272°
2026-04-30 10:50 61.71110 56.90059 36059 ft 424 kts 272°
2026-04-30 10:50 61.71642 56.77675 36064 ft 424 kts 272°
2026-04-30 10:51 61.72163 56.65279 36059 ft 425 kts 271°
2026-04-30 10:51 61.72675 56.52832 36065 ft 426 kts 271°
2026-04-30 10:52 61.73176 56.40360 36059 ft 427 kts 271°
2026-04-30 10:52 61.73667 56.27868 36061 ft 427 kts 271°
2026-04-30 10:53 61.74146 56.15381 36077 ft 428 kts 271°
2026-04-30 10:53 61.74615 56.02845 36073 ft 429 kts 271°
2026-04-30 10:54 61.75071 55.90365 36064 ft 429 kts 271°
2026-04-30 10:54 61.75519 55.77800 36069 ft 430 kts 271°
2026-04-30 10:55 61.75956 55.65200 36065 ft 431 kts 271°
2026-04-30 10:55 61.76382 55.52578 36066 ft 431 kts 271°
2026-04-30 10:56 61.76796 55.39942 36063 ft 431 kts 271°
2026-04-30 10:56 61.77200 55.27298 36064 ft 431 kts 271°
2026-04-30 10:57 61.77592 55.14649 36063 ft 431 kts 271°
2026-04-30 10:57 61.77971 55.02018 36079 ft 432 kts 271°
2026-04-30 10:58 61.78340 54.89354 36075 ft 432 kts 271°
2026-04-30 10:58 61.78700 54.76684 36070 ft 432 kts 271°
2026-04-30 10:59 61.79058 54.64031 36071 ft 432 kts 271°
2026-04-30 10:59 61.79430 54.51353 36068 ft 432 kts 271°
2026-04-30 11:00 61.79732 54.40810 36079 ft 432 kts 271°
2026-04-30 11:00 61.80082 54.28124 36074 ft 432 kts 271°
2026-04-30 11:01 61.80419 54.15455 36069 ft 432 kts 271°
2026-04-30 11:01 61.80744 54.02756 36067 ft 433 kts 270°
2026-04-30 11:02 61.81057 53.90044 36081 ft 433 kts 271°
2026-04-30 11:02 61.81408 53.75249 36075 ft 434 kts 270°
2026-04-30 11:03 61.81651 53.64568 36076 ft 434 kts 270°
2026-04-30 11:04 61.82067 53.45464 36068 ft 435 kts 270°
2026-04-30 11:04 61.82329 53.32682 36072 ft 436 kts 270°
2026-04-30 11:05 61.82577 53.19867 36065 ft 436 kts 270°
2026-04-30 11:05 61.82816 53.07044 36069 ft 436 kts 270°
2026-04-30 11:06 61.83043 52.94215 36070 ft 436 kts 270°
2026-04-30 11:06 61.83258 52.81398 36080 ft 436 kts 270°
2026-04-30 11:07 61.83462 52.68545 36070 ft 437 kts 270°
2026-04-30 11:07 61.83655 52.55675 36068 ft 437 kts 270°
2026-04-30 11:08 61.83836 52.42815 36064 ft 438 kts 270°
2026-04-30 11:08 61.84005 52.30011 36058 ft 438 kts 269°
2026-04-30 11:09 61.84087 52.17120 36061 ft 438 kts 269°
2026-04-30 11:09 61.84121 52.04225 36057 ft 438 kts 269°
2026-04-30 11:10 61.84153 51.91347 36048 ft 438 kts 269°
2026-04-30 11:10 61.84182 51.78448 36058 ft 438 kts 268°
2026-04-30 11:11 61.84200 51.65541 36072 ft 438 kts 269°
2026-04-30 11:11 61.84197 51.52619 36058 ft 439 kts 268°
2026-04-30 11:12 61.84178 51.39717 36047 ft 438 kts 268°
2026-04-30 11:12 61.84148 51.26891 36054 ft 438 kts 268°
2026-04-30 11:13 61.84108 51.13978 36060 ft 438 kts 268°
2026-04-30 11:13 61.84056 51.01065 36062 ft 439 kts 268°
2026-04-30 11:14 61.83991 50.88170 36065 ft 439 kts 268°
2026-04-30 11:14 61.83915 50.75256 36065 ft 439 kts 268°
2026-04-30 11:15 61.83826 50.62343 36052 ft 438 kts 268°
2026-04-30 11:15 61.83726 50.49452 36059 ft 439 kts 268°
2026-04-30 11:16 61.83614 50.36611 36052 ft 439 kts 268°
2026-04-30 11:16 61.83489 50.23670 36049 ft 440 kts 268°
2026-04-30 11:17 61.83352 50.10716 36054 ft 440 kts 268°
2026-04-30 11:17 61.83202 49.97748 36051 ft 441 kts 267°
2026-04-30 11:18 61.83043 49.84787 36052 ft 441 kts 267°
2026-04-30 11:18 61.82847 49.65280 36050 ft 442 kts 269°
2026-04-30 11:19 61.82844 49.52291 36052 ft 442 kts 269°
2026-04-30 11:19 61.82809 49.39281 36071 ft 442 kts 269°
2026-04-30 11:20 61.82687 49.26262 36062 ft 443 kts 268°
2026-04-30 11:20 61.82498 49.13257 36061 ft 443 kts 267°
2026-04-30 11:21 61.82302 49.00220 36058 ft 443 kts 267°
2026-04-30 11:21 61.82103 48.87180 36065 ft 443 kts 267°
2026-04-30 11:22 61.81897 48.74225 36062 ft 443 kts 267°
2026-04-30 11:22 61.81677 48.61187 36063 ft 443 kts 267°
2026-04-30 11:23 61.81445 48.48180 36063 ft 443 kts 267°
2026-04-30 11:24 61.81074 48.28653 36068 ft 443 kts 266°
2026-04-30 11:24 61.80811 48.15630 36056 ft 443 kts 267°
2026-04-30 11:25 61.80394 47.96106 36064 ft 443 kts 267°
2026-04-30 11:26 61.79794 47.70061 36076 ft 443 kts 267°
2026-04-30 11:26 61.79476 47.57062 36066 ft 444 kts 266°
2026-04-30 11:27 61.79148 47.44041 36077 ft 443 kts 266°
2026-04-30 11:27 61.78817 47.31017 36061 ft 444 kts 267°
2026-04-30 11:28 61.78346 47.11574 36067 ft 444 kts 266°
2026-04-30 11:29 61.77955 46.98559 36079 ft 444 kts 265°
2026-04-30 11:29 61.77258 46.79078 36073 ft 443 kts 265°
2026-04-30 11:30 61.76550 46.59598 36082 ft 444 kts 265°
2026-04-30 11:31 61.76068 46.46599 36072 ft 444 kts 265°
2026-04-30 11:31 61.75574 46.33599 36087 ft 444 kts 265°
2026-04-30 11:32 61.75068 46.20620 36080 ft 444 kts 265°
2026-04-30 11:32 61.74549 46.07621 36085 ft 444 kts 265°
2026-04-30 11:33 61.73746 45.88131 36078 ft 445 kts 265°
2026-04-30 11:33 61.73199 45.75198 36079 ft 446 kts 265°
2026-04-30 11:34 61.72634 45.62150 36086 ft 447 kts 265°
2026-04-30 11:34 61.72056 45.49085 36082 ft 448 kts 265°
2026-04-30 11:35 61.71465 45.36018 36080 ft 449 kts 265°
2026-04-30 11:35 61.70860 45.22920 36095 ft 449 kts 265°
2026-04-30 11:36 61.70245 45.09812 36073 ft 450 kts 265°
2026-04-30 11:36 61.69626 44.96701 36085 ft 449 kts 265°
2026-04-30 11:37 61.69014 44.83592 36086 ft 450 kts 265°
2026-04-30 11:37 61.68393 44.70501 36099 ft 450 kts 265°
2026-04-30 11:38 61.67756 44.57388 36086 ft 450 kts 265°
2026-04-30 11:38 61.67109 44.44359 36099 ft 450 kts 265°
2026-04-30 11:39 61.66446 44.31265 36092 ft 451 kts 265°
2026-04-30 11:39 61.65769 44.18152 36088 ft 450 kts 265°
2026-04-30 11:40 61.65079 44.05045 36100 ft 450 kts 265°
2026-04-30 11:40 61.64377 43.91940 36106 ft 451 kts 265°
2026-04-30 11:41 61.63664 43.78854 36103 ft 451 kts 265°
2026-04-30 11:41 61.62935 43.65741 36103 ft 451 kts 265°
2026-04-30 11:42 61.62194 43.52625 36103 ft 452 kts 265°
2026-04-30 11:42 61.61440 43.39503 36108 ft 452 kts 265°
2026-04-30 11:43 61.60674 43.26404 36094 ft 452 kts 264°
2026-04-30 11:43 61.59899 43.13372 36108 ft 452 kts 265°
2026-04-30 11:44 61.59106 43.00251 36109 ft 453 kts 264°
2026-04-30 11:44 61.58300 42.87146 36109 ft 453 kts 264°
2026-04-30 11:45 61.57481 42.74021 36108 ft 453 kts 264°
2026-04-30 11:45 61.56649 42.60899 36102 ft 453 kts 264°
2026-04-30 11:46 61.55805 42.47781 36112 ft 454 kts 264°
2026-04-30 11:46 61.54950 42.34667 36101 ft 454 kts 264°
2026-04-30 11:47 61.54093 42.21581 36110 ft 454 kts 264°
2026-04-30 11:47 61.53236 42.08478 36113 ft 454 kts 264°
2026-04-30 11:48 61.52373 41.95462 36116 ft 454 kts 264°
2026-04-30 11:48 61.51491 41.82361 36118 ft 454 kts 264°
2026-04-30 11:49 61.50596 41.69283 36115 ft 454 kts 264°
2026-04-30 11:49 61.49687 41.56188 36119 ft 454 kts 264°
2026-04-30 11:50 61.48765 41.43099 36116 ft 454 kts 264°
2026-04-30 11:50 61.47833 41.30041 36117 ft 454 kts 264°
2026-04-30 11:51 61.46886 41.16971 36121 ft 454 kts 264°
2026-04-30 11:51 61.45928 41.03910 36116 ft 454 kts 263°
2026-04-30 11:52 61.44957 40.90863 36122 ft 454 kts 263°
2026-04-30 11:52 61.43974 40.77833 36123 ft 454 kts 263°
2026-04-30 11:53 61.42981 40.64835 36120 ft 454 kts 263°
2026-04-30 11:53 61.41980 40.51914 36115 ft 453 kts 263°
2026-04-30 11:54 61.40962 40.38925 36114 ft 453 kts 263°
2026-04-30 11:54 61.39931 40.25947 36132 ft 453 kts 263°
2026-04-30 11:55 61.38890 40.12998 36123 ft 453 kts 263°
2026-04-30 11:55 61.37834 40.00029 36124 ft 453 kts 263°
2026-04-30 11:56 61.36765 39.87061 36130 ft 454 kts 263°
2026-04-30 11:56 61.35683 39.74091 36126 ft 454 kts 263°
2026-04-30 11:57 61.34589 39.61145 36120 ft 454 kts 263°
2026-04-30 11:57 61.33669 39.50361 36126 ft 454 kts 263°
2026-04-30 11:58 61.32550 39.37396 36125 ft 455 kts 263°
2026-04-30 11:58 61.31420 39.24447 36112 ft 455 kts 263°
2026-04-30 11:59 61.30276 39.11480 36120 ft 455 kts 263°
2026-04-30 11:59 61.29120 38.98516 36114 ft 456 kts 263°
2026-04-30 12:00 61.27951 38.85578 36102 ft 456 kts 263°
2026-04-30 12:00 61.26769 38.72629 36119 ft 456 kts 263°
2026-04-30 12:01 61.25586 38.59774 36121 ft 456 kts 263°
2026-04-30 12:01 61.24382 38.46834 36120 ft 456 kts 262°
2026-04-30 12:02 61.22390 38.34293 36133 ft 462 kts 248°
2026-04-30 12:02 61.19598 38.22251 36119 ft 463 kts 247°
2026-04-30 12:03 61.15394 38.04224 36107 ft 463 kts 248°
2026-04-30 12:04 61.12625 37.92191 36122 ft 463 kts 248°
2026-04-30 12:04 61.09853 37.80160 36122 ft 463 kts 248°
2026-04-30 12:05 61.07067 37.68137 36126 ft 464 kts 248°
2026-04-30 12:05 61.04271 37.56149 36128 ft 464 kts 248°
2026-04-30 12:06 61.01458 37.44152 36128 ft 465 kts 248°
2026-04-30 12:06 60.98650 37.32248 36122 ft 465 kts 248°
2026-04-30 12:07 60.95812 37.20283 36133 ft 465 kts 248°
2026-04-30 12:07 60.92967 37.08349 36133 ft 465 kts 248°
2026-04-30 12:08 60.90104 36.96407 36136 ft 466 kts 248°
2026-04-30 12:08 60.87230 36.84479 36142 ft 466 kts 248°
2026-04-30 12:09 60.84345 36.72566 36126 ft 466 kts 248°
2026-04-30 12:09 60.81460 36.60689 36119 ft 466 kts 248°
2026-04-30 12:10 60.78573 36.48803 36136 ft 466 kts 248°
2026-04-30 12:10 60.75676 36.36926 36158 ft 467 kts 248°
2026-04-30 12:11 60.72768 36.25072 36145 ft 467 kts 248°
2026-04-30 12:11 60.69841 36.13207 36144 ft 468 kts 248°
2026-04-30 12:12 60.66901 36.01358 36146 ft 468 kts 247°
2026-04-30 12:12 60.63949 35.89522 36150 ft 468 kts 247°
2026-04-30 12:13 60.61003 35.77774 36151 ft 469 kts 247°
2026-04-30 12:13 60.58010 35.65902 36147 ft 469 kts 247°
2026-04-30 12:14 60.55040 35.54184 36152 ft 469 kts 247°
2026-04-30 12:14 60.52039 35.42403 36128 ft 469 kts 247°
2026-04-30 12:15 60.49031 35.30649 36139 ft 469 kts 247°
2026-04-30 12:15 60.46019 35.18941 36149 ft 469 kts 247°
2026-04-30 12:16 60.43824 35.06694 36159 ft 459 kts 261°
2026-04-30 12:16 60.42311 34.94124 36140 ft 459 kts 261°
2026-04-30 12:17 60.40073 34.75953 36120 ft 424 kts 261°
2026-04-30 12:17 60.39351 34.70278 36108 ft 411 kts 261°
2026-04-30 12:17 60.38646 34.64774 36119 ft 397 kts 261°
2026-04-30 12:18 60.37265 34.53971 36156 ft 402 kts 261°
2026-04-30 12:18 60.35839 34.42871 36161 ft 414 kts 261°
2026-04-30 12:19 60.34358 34.31498 36152 ft 421 kts 260°
2026-04-30 12:19 60.32849 34.20039 36136 ft 421 kts 260°
2026-04-30 12:20 60.31353 34.08795 36137 ft 411 kts 261°
2026-04-30 12:20 60.29864 33.97618 36151 ft 414 kts 261°
2026-04-30 12:21 60.28357 33.86377 36156 ft 416 kts 261°
2026-04-30 12:21 60.26839 33.75157 36162 ft 419 kts 261°
2026-04-30 12:22 60.25297 33.63836 36156 ft 420 kts 260°
2026-04-30 12:22 60.23737 33.52476 36155 ft 421 kts 260°
2026-04-30 12:23 60.22167 33.41122 36155 ft 421 kts 260°
2026-04-30 12:23 60.20593 33.29806 36158 ft 419 kts 260°
2026-04-30 12:24 60.19016 33.18550 36160 ft 417 kts 260°
2026-04-30 12:24 60.17436 33.07386 36145 ft 414 kts 261°
2026-04-30 12:25 60.15854 32.96292 36156 ft 412 kts 261°
2026-04-30 12:25 60.14272 32.85246 36175 ft 411 kts 260°
2026-04-30 12:26 60.12686 32.74241 36172 ft 411 kts 260°
2026-04-30 12:26 60.11081 32.63158 35717 ft 423 kts 260°
2026-04-30 12:27 60.10247 32.57405 34903 ft 433 kts 260°
2026-04-30 12:27 60.09397 32.51592 34179 ft 440 kts 260°
2026-04-30 12:27 60.08526 32.45674 33350 ft 446 kts 260°
2026-04-30 12:27 60.07643 32.39687 32485 ft 452 kts 260°
2026-04-30 12:28 60.06744 32.33617 31643 ft 457 kts 260°
2026-04-30 12:28 60.05835 32.27495 30813 ft 461 kts 260°
2026-04-30 12:28 60.04919 32.21316 29971 ft 464 kts 260°
2026-04-30 12:28 60.04005 32.15120 29023 ft 466 kts 260°
2026-04-30 12:29 60.03086 32.08882 28072 ft 468 kts 260°
2026-04-30 12:29 60.02162 32.02637 27180 ft 468 kts 260°
2026-04-30 12:29 60.01237 31.96393 26322 ft 468 kts 260°
2026-04-30 12:29 60.00313 31.90160 25515 ft 467 kts 260°
2026-04-30 12:30 59.99345 31.83980 24761 ft 468 kts 255°
2026-04-30 12:30 59.97947 31.78069 24045 ft 470 kts 249°
2026-04-30 12:30 59.96510 31.72236 23255 ft 466 kts 250°
2026-04-30 12:30 59.95144 31.66392 22413 ft 461 kts 253°
2026-04-30 12:31 59.94013 31.60473 21661 ft 453 kts 257°
2026-04-30 12:31 59.93148 31.55366 21026 ft 448 kts 258°
2026-04-30 12:31 59.92185 31.49494 20330 ft 443 kts 258°
2026-04-30 12:31 59.91215 31.43689 19651 ft 440 kts 257°
2026-04-30 12:32 59.90222 31.37943 18988 ft 436 kts 257°
2026-04-30 12:32 59.89219 31.32275 18318 ft 432 kts 256°
2026-04-30 12:32 59.88214 31.26667 17570 ft 429 kts 256°
2026-04-30 12:32 59.87131 31.21154 16837 ft 430 kts 248°
2026-04-30 12:33 59.85291 31.16409 16124 ft 439 kts 226°
2026-04-30 12:33 59.82769 31.13001 15438 ft 442 kts 207°
2026-04-30 12:33 59.79927 31.10722 14793 ft 438 kts 203°
2026-04-30 12:33 59.77099 31.08528 14127 ft 434 kts 203°
2026-04-30 12:34 59.74216 31.06852 13383 ft 433 kts 189°
2026-04-30 12:34 59.71226 31.06375 12693 ft 428 kts 184°
2026-04-30 12:34 59.68289 31.05850 12084 ft 420 kts 192°
2026-04-30 12:34 59.65617 31.03784 11511 ft 409 kts 212°
2026-04-30 12:35 59.63185 31.00963 10974 ft 402 kts 212°
2026-04-30 12:35 59.60838 30.98173 10837 ft 383 kts 220°
2026-04-30 12:35 59.59188 30.94334 10746 ft 356 kts 248°
2026-04-30 12:35 59.58668 30.89807 10689 ft 328 kts 277°
2026-04-30 12:36 59.59253 30.85684 10645 ft 303 kts 301°
2026-04-30 12:36 59.60321 30.82214 10591 ft 288 kts 310°
2026-04-30 12:36 59.61606 30.79319 10542 ft 274 kts 319°
2026-04-30 12:36 59.63027 30.76936 10446 ft 262 kts 328°
2026-04-30 12:37 59.64584 30.75271 10367 ft 249 kts 342°
2026-04-30 12:37 59.66239 30.75121 10283 ft 239 kts 17°
2026-04-30 12:37 59.67673 30.76650 10261 ft 230 kts 28°
2026-04-30 12:37 59.69031 30.78168 10184 ft 218 kts 19°
2026-04-30 12:38 59.70445 30.78957 10139 ft 204 kts
2026-04-30 12:38 59.71810 30.79099 10059 ft 190 kts 358°
2026-04-30 12:38 59.73086 30.78915 9898 ft 180 kts 353°
2026-04-30 12:38 59.74319 30.78587 9537 ft 179 kts 351°
2026-04-30 12:39 59.75534 30.78184 9289 ft 172 kts 349°
2026-04-30 12:39 59.76692 30.77793 9004 ft 167 kts 352°
2026-04-30 12:39 59.77848 30.77448 8612 ft 168 kts 346°
2026-04-30 12:39 59.78809 30.76183 8096 ft 173 kts 306°
2026-04-30 12:40 59.79077 30.73845 7585 ft 183 kts 265°
2026-04-30 12:40 59.78466 30.71614 7133 ft 192 kts 224°
2026-04-30 12:40 59.77252 30.70517 6729 ft 194 kts 197°
2026-04-30 12:40 59.75956 30.69857 6297 ft 191 kts 198°
2026-04-30 12:41 59.74686 30.69173 5908 ft 186 kts 199°
2026-04-30 12:41 59.73449 30.68505 5520 ft 183 kts 199°
2026-04-30 12:41 59.72235 30.67869 5146 ft 178 kts 199°
2026-04-30 12:41 59.71060 30.67220 4780 ft 173 kts 200°
2026-04-30 12:42 59.69922 30.66551 4429 ft 167 kts 201°
2026-04-30 12:42 59.68815 30.65898 4025 ft 165 kts 201°
2026-04-30 12:42 59.67843 30.64828 3579 ft 159 kts 235°
2026-04-30 12:42 59.67555 30.62822 3149 ft 155 kts 279°
2026-04-30 12:43 59.68129 30.61063 2732 ft 159 kts 325°
2026-04-30 12:43 59.69222 30.60708 2536 ft 167 kts
2026-04-30 12:43 59.69979 30.60995 2551 ft 167 kts 357°
2026-04-30 12:43 59.71000 30.60202 2525 ft 159 kts 320°
2026-04-30 12:44 59.71979 30.59130 2488 ft 158 kts 332°
2026-04-30 12:44 59.72971 30.58287 2474 ft 152 kts 333°
2026-04-30 12:44 59.73929 30.57466 2473 ft 150 kts 326°
2026-04-30 12:44 59.74537 30.55952 2493 ft 140 kts 290°
2026-04-30 12:45 59.74938 30.54140 2485 ft 144 kts 291°
2026-04-30 12:45 59.75335 30.52316 2492 ft 144 kts 291°
2026-04-30 12:45 59.75712 30.50477 2434 ft 143 kts 288°
2026-04-30 12:45 59.76029 30.48615 2244 ft 141 kts 286°
2026-04-30 12:46 59.76313 30.46770 2060 ft 140 kts 285°
2026-04-30 12:46 59.76584 30.44943 1873 ft 136 kts 285°
2026-04-30 12:46 59.76850 30.43138 1702 ft 136 kts 284°
2026-04-30 12:46 59.77114 30.41331 1510 ft 137 kts 284°
2026-04-30 12:47 59.77382 30.39508 1320 ft 138 kts 285°
2026-04-30 12:47 59.77650 30.37680 1120 ft 137 kts 285°
2026-04-30 12:47 59.77914 30.35882 923 ft 135 kts 285°
2026-04-30 12:47 59.78176 30.34106 741 ft 135 kts 287°
2026-04-30 12:48 59.78442 30.32297 557 ft 136 kts 288°
2026-04-30 12:48 59.78706 30.30508 328 ft 134 kts 290°
2026-04-30 12:48 59.78972 30.28705 179 ft 140 kts 289°
2026-04-30 12:48 59.79249 30.26881 95 ft 129 kts 289°
2026-04-30 12:49 59.79473 30.25326 85 ft 93 kts 286°
2026-04-30 12:49 59.79625 30.24316 85 ft 70 kts 286°
2026-04-30 12:49 59.79749 30.23479 84 ft 42 kts 287°
2026-04-30 12:49 59.79875 30.23115 85 ft 26 kts 315°
2026-04-30 12:50 59.79977 30.23139 82 ft 22 kts 98°
2026-04-30 12:50 59.79913 30.23569 85 ft 35 kts 106°
2026-04-30 12:50 59.79846 30.24030 82 ft 34 kts 107°
2026-04-30 12:50 59.79781 30.24464 84 ft 32 kts 106°
2026-04-30 12:51 59.79720 30.24876 83 ft 30 kts 106°
2026-04-30 12:51 59.79662 30.25264 83 ft 28 kts 106°
2026-04-30 12:51 59.79608 30.25629 85 ft 27 kts 106°
2026-04-30 12:51 59.79557 30.25970 83 ft 25 kts 107°
2026-04-30 12:52 59.79523 30.26213 86 ft 5 kts 105°
2026-04-30 12:52 59.79510 30.26326 84 ft 13 kts 83°
2026-04-30 12:52 59.79568 30.26383 86 ft 10 kts 16°
2026-04-30 12:52 59.79641 30.26427 82 ft 11 kts 16°
2026-04-30 12:53 59.79716 30.26470 81 ft 11 kts 16°
2026-04-30 12:53 59.79760 30.26522 82 ft 5 kts 88°
2026-04-30 12:53 59.79751 30.26583 83 ft 5 kts 107°
2026-04-30 12:53 59.79746 30.26614 81 ft 0 kts 107°